EST,Max TemperatureF,Mean TemperatureF,Min TemperatureF,Max Dew PointF,MeanDew PointF,Min DewpointF,Max Humidity, Mean Humidity, Min Humidity, Max Sea Level PressureIn, Mean Sea Level PressureIn, Min Sea Level PressureIn, Max VisibilityMiles, Mean VisibilityMiles, Min VisibilityMiles, Max Wind SpeedMPH, Mean Wind SpeedMPH, Max Gust SpeedMPH,PrecipitationIn, CloudCover, Events, WindDirDegrees
2012-12-1,61,46,33,41,35,31,91,65,37,30.40,30.35,30.31,10,10,7,6,3,,0.00,0,,218
2012-12-2,66,52,38,51,43,35,95,75,47,30.39,30.31,30.24,10,9,3,18,6,24,0.00,1,,199
2012-12-3,72,62,51,54,51,49,95,73,45,30.29,30.25,30.22,10,10,4,12,6,,0.00,5,,213
2012-12-4,71,58,47,53,50,46,96,75,48,30.31,30.24,30.16,10,9,2,13,6,17,0.00,1,,208
2012-12-5,59,49,39,56,50,39,97,87,76,30.22,30.16,30.10,10,8,0,12,6,17,0.06,7,Fog-Rain,231
2012-12-6,47,41,35,41,32,28,96,68,50,30.36,30.27,30.22,10,10,3,12,5,,0.00,4,,51
2012-12-7,48,45,42,47,41,33,96,84,69,30.23,30.12,30.00,10,8,2,5,1,,0.25,8,Rain,10
2012-12-8,62,55,48,53,50,47,97,90,70,30.05,30.00,29.96,10,5,0,9,3,,0.01,4,Fog,216
2012-12-9,66,58,49,59,55,48,96,88,71,30.13,30.07,29.99,10,7,2,8,5,,0.02,6,Rain,190
2012-12-10,68,64,61,62,59,55,96,82,62,29.98,29.79,29.68,10,8,2,21,9,28,0.00,6,Rain,201
2012-12-11,63,54,46,56,41,35,81,62,48,30.16,29.95,29.70,10,10,10,18,9,24,0.00,7,,345
2012-12-12,46,43,39,34,30,27,74,59,53,30.35,30.28,30.17,10,10,10,12,8,18,0.01,8,Rain,31
2012-12-13,50,41,32,34,31,28,91,70,49,30.40,30.35,30.30,10,10,7,12,7,17,0.04,4,Rain,5
2012-12-14,55,40,26,32,28,24,96,69,32,30.36,30.30,30.24,10,9,5,6,0,,0.00,0,,232
2012-12-15,54,43,32,36,30,26,91,61,33,30.27,30.20,30.10,10,10,10,8,2,,0.00,2,,172
2012-12-16,55,50,44,54,48,32,95,90,53,30.08,29.99,29.89,10,8,2,13,4,16,0.24,8,Rain,206
2012-12-17,59,56,52,54,53,52,97,90,81,29.89,29.78,29.64,10,8,2,15,6,21,0.18,6,Rain,212
2012-12-18,60,48,35,54,42,28,96,70,39,29.89,29.74,29.63,10,9,2,16,7,23,0.00,4,,252
2012-12-19,64,48,32,36,32,30,93,63,29,30.16,29.99,29.88,10,10,10,9,5,,0.00,0,,229
2012-12-20,61,49,37,59,41,33,94,77,60,30.18,29.94,29.44,10,9,4,20,7,30,0.30,3,Rain,111
2012-12-21,56,46,35,54,25,17,84,52,38,29.77,29.61,29.44,10,10,10,21,15,32,0.01,4,,258
2012-12-22,47,40,34,21,17,12,55,41,27,30.08,29.95,29.77,10,10,10,15,8,24,0.00,1,,282
2012-12-23,56,42,27,24,18,13,74,40,18,30.13,30.06,29.99,10,10,10,12,5,12,0.00,0,,230
2012-12-24,50,46,41,44,34,24,85,63,45,30.04,29.96,29.89,10,10,10,13,6,20,0.00,8,Rain,205
2012-12-25,55,48,43,44,42,36,95,81,61,30.13,30.05,29.91,10,10,4,12,4,,0.00,5,,12
2012-12-26,45,40,36,44,38,35,97,92,73,30.11,29.73,29.44,10,7,1,21,10,29,1.45,8,Rain,23
2012-12-27,46,38,32,35,28,23,95,66,47,30.07,29.86,29.58,10,10,10,15,9,21,0.01,1,,275
2012-12-28,42,34,27,31,25,23,92,71,51,30.18,30.09,30.02,10,10,10,7,3,,0.00,1,,269
2012-12-29,48,41,34,41,32,26,96,75,49,30.00,29.79,29.64,10,8,1,13,4,24,0.24,6,Rain,288
2012-12-30,43,38,32,25,18,14,63,47,31,30.37,30.23,29.93,10,10,10,14,7,22,0.00,0,,287
2012-12-31,51,38,26,26,21,16,86,51,28,30.35,30.24,30.09,10,10,10,13,5,16,0.00,1,,219